カタログに戻る

CZ-6A DEB

運用中PO
NORAD 54938·DEBRIS·🇨🇳 China

打ち上げ Nov 11, 2022 から Taiyuan Satellite Launch Center

Loading…

次のパス (今後24時間)

TLE

最新Source: Space-Track

元期: Sep 12, 2026, 11:02 UTC

1 54938U 22151SB  26255.45974707  .00012277  00000-0  11222-2 0  9992
2 54938  99.1524  71.2478 0060497   3.2659 356.8939 14.93800335204006

AllMySatでCZ-6A DEBをリアルタイム追跡

Download on the App Store